[[{"header":{"parameterUnit":"m.s-1","parameterCategory":1,"la1":30.2991,"la2":30.254,"lo1":-89.0895,"lo2":-89.0444,"dy":0.0017,"dx":0.0017,"nx":28,"ny":28,"refTime":"2025-04-21T21:00:00:Z","depth":0,"parameterNumber":2,"parameterNumberName":"U-component_of_WINDS"},"data":[0,0,0,0,0,0,0,0,0,0,0,0,0,0,0,0,0,0,0,0,0,0,0,0,0,0,0,0,0,0,0,0,0,0,0,0,0,0,0,0,0,0,0,0,0,0,0,0,0,0,0,0,0,0,0,0,0,0,-2.3682,-2.3682,0,-2.3744,-2.3745,-2.3746,-2.3745,-2.3744,-2.3743,-2.3742,-2.3808,-2.381,-2.3813,0,0,0,0,0,0,0,0,0,0,0,0,0,-2.3564,-2.3566,-2.3682,-2.3682,-2.3683,-2.3744,-2.3745,-2.3746,-2.3745,-2.3744,-2.3743,-2.3742,-2.3807,-2.381,-2.3813,0,0,0,0,0,0,0,0,0,0,0,0,0,-2.362,-2.3567,-2.3681,-2.369,-2.3691,-2.3744,-2.3745,-2.3746,-2.3745,-2.3744,-2.3743,-2.3742,-2.3806,-2.3809,-2.3813,-2.3862,0,0,-2.3825,-2.3826,0,0,0,0,0,0,0,0,-2.3617,-2.3624,-2.3688,-2.369,-2.3691,-2.3735,-2.3727,-2.3785,-2.3746,-2.3725,-2.3742,-2.3741,-2.3785,-2.379,-2.3805,-2.3865,-2.3867,-2.3825,-2.3827,-2.3829,-2.383,0,0,0,0,0,0,0,-2.3613,-2.3621,-2.3706,-2.3689,-2.3691,-2.3692,-2.3698,-2.3738,-2.3761,-2.3727,-2.3727,-2.3734,-2.3785,-2.3801,-2.3806,-2.3868,-2.3825,-2.3828,-2.3831,-2.3832,-2.3973,-2.3974,0,0,0,0,0,0,-2.3607,-2.3618,-2.3704,-2.3708,-2.365,-2.3695,-2.3702,-2.3722,-2.3761,-2.3765,-2.3735,-2.3734,-2.3795,-2.3802,-2.3808,-2.3868,-2.3829,-2.3832,-2.3835,-2.3971,-2.3973,-2.3975,0,0,0,0,0,0,-2.3604,-2.3615,-2.3702,-2.3663,-2.3674,-2.3698,-2.3721,-2.3724,-2.374,-2.3767,-2.3771,-2.3747,-2.3794,-2.3803,-2.3849,-2.387,-2.3834,-2.3838,-2.3969,-2.3972,-2.3974,-2.3986,0,0,0,0,0,0,-2.3601,-2.3614,-2.3631,-2.3664,-2.3677,-2.374,-2.3722,-2.3727,-2.3746,-2.3745,-2.3779,-2.3783,-2.3794,-2.3843,-2.3852,-2.3874,-2.3841,-2.3968,-2.397,-2.3973,-2.3984,-2.3989,-2.3993,0,0,0,0,0,-2.3597,-2.3632,-2.3632,-2.3643,-2.3699,-2.3741,-2.3749,-2.376,-2.3748,-2.3766,-2.3784,-2.3782,-2.3867,-2.3848,-2.3858,-2.3882,-2.3966,-2.397,-2.3973,-2.3982,-2.3988,-2.3992,0,0,0,0,0,0,-2.3602,-2.3637,-2.3637,-2.3684,-2.371,-2.3741,-2.3764,-2.3765,-2.3795,-2.3793,-2.3806,-2.3814,-2.3859,-2.3876,-2.3854,-2.3931,-2.3915,-2.3921,-2.3918,-2.3924,-2.3928,-2.3923,-2.3844,0,0,0,0,0,-2.3608,-2.3639,-2.3668,-2.3707,-2.372,-2.374,-2.3759,-2.3766,-2.3793,-2.3804,-2.3825,-2.3852,-2.3885,-2.3906,-2.3937,-2.3987,-2.3995,-2.4009,-2.4013,-2.4017,-2.4021,-2.4049,-2.4056,-2.3985,-2.3985,-2.3985,0,0,-2.3622,-2.3645,-2.3663,-2.3709,-2.3729,-2.3761,-2.3749,-2.3783,-2.3807,-2.3809,-2.3853,-2.387,-2.3901,-2.3949,-2.3971,-2.3964,-2.4042,-2.4021,-2.4023,-2.4026,-2.4053,-2.406,-2.4066,-2.3988,-2.3987,-2.3987,0,0,-2.3663,-2.3684,-2.3718,-2.374,-2.3771,-2.3785,-2.3794,-2.3826,-2.3836,-2.3881,-2.3883,-2.3913,-2.3969,-2.3991,-2.401,-2.4063,-2.4062,-2.4073,-2.4094,-2.4122,-2.4127,-2.4132,-2.4151,-2.4157,-2.4077,-2.4077,-2.4077,0,-2.3676,-2.3724,-2.3736,-2.3771,-2.3791,-2.3795,-2.383,-2.3851,-2.3891,-2.3906,-2.3897,-2.3968,-2.3989,-2.4043,-2.4056,-2.4071,-2.4082,-2.4068,-2.4125,-2.4131,-2.4135,-2.4153,-2.416,-2.4078,-2.4078,-2.4078,-2.4078,0,-2.3738,-2.3772,-2.3796,-2.3835,-2.3858,-2.3893,-2.3912,-2.3934,-2.394,-2.3955,-2.4001,-2.4027,-2.4064,-2.4078,-2.4084,-2.4133,-2.4128,-2.4123,-2.4106,-2.4143,-2.416,-2.4167,-2.408,-2.4079,-2.4079,-2.4079,0,0,-2.3782,-2.3828,-2.3837,-2.3855,-2.3892,-2.3918,-2.3954,-2.3991,-2.401,-2.4039,-2.4069,-2.4118,-2.4113,-2.4135,-2.4144,-2.4168,-2.4208,-2.416,-2.4161,-2.4167,-2.4264,-2.4267,-2.4275,-2.4209,-2.4211,-2.4212,-2.4261,0,-2.3826,-2.3889,-2.3902,-2.3957,-2.3988,-2.3994,-2.4025,-2.4052,-2.4067,-2.4097,-2.4115,-2.4149,-2.4141,-2.4154,-2.4179,-2.4198,-2.4228,-2.4195,-2.4238,-2.4239,-2.4228,-2.4283,-2.4286,-2.4332,-2.4268,-2.4269,-2.427,0,-2.3885,-2.3915,-2.3973,-2.4006,-2.402,-2.4048,-2.4083,-2.4111,-2.4142,-2.4152,-2.4177,-2.4184,-2.4223,-2.4207,-2.4261,-2.4238,-2.4257,-2.427,-2.4272,-2.4275,-2.4255,-2.4287,-2.4347,-2.4353,-2.4281,-2.428,-2.4279,0,-2.391,-2.3965,-2.4007,-2.4022,-2.4063,-2.4082,-2.41,-2.413,-2.4151,-2.4183,-2.4197,-2.4233,-2.4252,-2.4281,-2.4297,-2.4284,-2.4351,-2.4335,-2.436,-2.4359,-2.4372,-2.437,-2.4434,-2.4387,-2.4387,-2.4386,-2.4386,0,-2.3956,-2.3991,-2.4018,-2.4044,-2.4084,-2.41,-2.414,-2.4158,-2.4185,-2.4214,-2.4223,-2.4251,-2.4272,-2.4303,-2.4317,-2.436,-2.4369,-2.4379,-2.4381,-2.4377,-2.4376,-2.4388,-2.4385,-2.4388,-2.4388,-2.4387,-2.4387,0,-2.399,-2.4009,-2.4055,-2.409,-2.41,-2.4128,-2.4158,-2.4184,-2.4201,-2.4239,-2.4249,-2.4275,-2.4313,-2.4333,-2.4381,-2.439,-2.4438,-2.444,-2.4427,-2.4428,-2.4451,-2.4448,-2.4524,-2.4534,-2.4481,-2.4481,-2.4482,0,-2.4017,-2.4044,-2.4083,-2.4103,-2.4121,-2.4154,-2.4176,-2.4195,-2.4218,-2.4256,-2.4277,-2.4316,-2.4347,-2.4407,-2.4431,-2.4468,-2.447,-2.4494,-2.4476,-2.447,-2.447,-2.4467,-2.447,-2.4497,-2.4497,-2.4498,-2.4498,0,-2.4064,-2.4073,-2.4104,-2.414,-2.4166,-2.4195,-2.4223,-2.424,-2.4263,-2.4289,-2.4328,-2.4352,-2.4401,-2.4439,-2.4478,-2.4497,-2.4502,-2.4504,-2.4512,-2.4506,-2.4497,-2.4502,-2.4435,-2.4502,-2.4501,-2.4501,-2.4501,-2.4501,-2.4095,-2.412,-2.4151,-2.4186,-2.4209,-2.4236,-2.4262,-2.4283,-2.4315,-2.4356,-2.4365,-2.4406,-2.4439,-2.4491,-2.4512,-2.4545,-2.454,-2.4551,-2.4554,-2.4556,-2.4556,-2.4494,-2.4553,-2.4552,-2.4552,-2.4552,-2.4552,0,-2.4142,-2.4163,-2.4195,-2.4235,-2.4263,-2.4265,-2.4297,-2.4321,-2.4356,-2.4386,-2.4417,-2.4462,-2.45,-2.4528,-2.4566,-2.4587,-2.459,-2.4597,-2.4594,-2.4599,-2.4559,-2.4548,-2.4593,-2.4593,-2.4593,-2.4593,-2.4593,-2.4593,-2.4169,-2.4211,-2.4224,-2.4278,-2.4299,-2.4338,-2.4357,-2.4382,-2.4406,-2.4456,-2.4487,-2.4505,-2.4534,-2.4575,-2.461,-2.4618,-2.4631,-2.4637,-2.4645,-2.4606,-2.4602,-2.4597,-2.4587,-2.464,-2.464,-2.4682,-2.4682,-2.4683]},{"header":{"parameterUnit":"m.s-1","parameterCategory":1,"la1":30.2991,"la2":30.254,"lo1":-89.0895,"lo2":-89.0444,"dy":0.0017,"dx":0.0017,"nx":28,"ny":28,"refTime":"2025-04-21T21:00:00:Z","depth":0,"parameterNumber":3,"parameterNumberName":"V-component_of_WINDS"},"data":[0,0,0,0,0,0,0,0,0,0,0,0,0,0,0,0,0,0,0,0,0,0,0,0,0,0,0,0,0,0,0,0,0,0,0,0,0,0,0,0,0,0,0,0,0,0,0,0,0,0,0,0,0,0,0,0,0,0,4.0631,4.0631,0,4.0644,4.0644,4.0644,4.0689,4.069,4.0691,4.0692,4.0702,4.0702,4.0701,0,0,0,0,0,0,0,0,0,0,0,0,0,4.0646,4.0645,4.0631,4.0631,4.0631,4.0644,4.0644,4.0644,4.0689,4.069,4.0691,4.0693,4.0703,4.0702,4.0701,0,0,0,0,0,0,0,0,0,0,0,0,0,4.0647,4.0645,4.0631,4.0655,4.0658,4.0644,4.0644,4.0644,4.0689,4.069,4.0692,4.0693,4.0703,4.0702,4.0701,4.0663,0,0,4.0698,4.0697,0,0,0,0,0,0,0,0,4.0647,4.0646,4.0651,4.0654,4.0656,4.0666,4.0653,4.065,4.0688,4.0677,4.0692,4.0694,4.0689,4.0689,4.0688,4.0664,4.0664,4.0698,4.0697,4.0697,4.0696,0,0,0,0,0,0,0,4.0647,4.0646,4.0636,4.0651,4.0654,4.0666,4.0668,4.0653,4.0674,4.0678,4.0681,4.0682,4.0691,4.0689,4.0689,4.0665,4.0698,4.0697,4.0696,4.0696,4.0615,4.0613,0,0,0,0,0,0,4.0643,4.0646,4.0635,4.0636,4.0655,4.0664,4.0666,4.0661,4.0674,4.0678,4.0681,4.0684,4.069,4.069,4.0689,4.0649,4.0697,4.0696,4.0695,4.0616,4.0615,4.0613,0,0,0,0,0,0,4.0643,4.0642,4.0635,4.0642,4.0642,4.0662,4.0657,4.0661,4.0659,4.0677,4.0681,4.0675,4.0691,4.0691,4.0671,4.065,4.0695,4.0694,4.0618,4.0616,4.0614,4.0566,0,0,0,0,0,0,4.0644,4.0642,4.0627,4.0641,4.0641,4.0616,4.0655,4.066,4.0658,4.0662,4.0672,4.0676,4.0692,4.0672,4.067,4.0649,4.0693,4.062,4.0617,4.0614,4.057,4.0563,4.0557,0,0,0,0,0,4.0644,4.0612,4.0626,4.0625,4.0624,4.0614,4.0614,4.0635,4.0656,4.0642,4.0654,4.0675,4.0653,4.067,4.0667,4.0646,4.0622,4.0618,4.0615,4.0573,4.0564,4.0557,0,0,0,0,0,0,4.0592,4.0614,4.063,4.0601,4.0606,4.0622,4.0605,4.0625,4.0623,4.0627,4.0652,4.0654,4.0631,4.0637,4.0655,4.0613,4.0641,4.0637,4.061,4.0602,4.0595,4.0594,4.0693,0,0,0,0,0,4.0578,4.0569,4.0588,4.0561,4.0563,4.0584,4.058,4.0596,4.0602,4.0603,4.0613,4.0617,4.0612,4.0607,4.0602,4.0571,4.0576,4.0556,4.0549,4.0544,4.054,4.0528,4.052,4.0602,4.0602,4.0602,0,0,4.0548,4.0558,4.0551,4.0551,4.0557,4.0548,4.0585,4.0572,4.0566,4.0601,4.0584,4.0592,4.0598,4.0573,4.0563,4.0577,4.0519,4.054,4.0535,4.0534,4.0523,4.0516,4.0509,4.0599,4.06,4.06,0,0,4.0488,4.0494,4.0474,4.048,4.0489,4.0503,4.0499,4.0513,4.052,4.0503,4.0531,4.0524,4.0512,4.0517,4.0518,4.0465,4.0485,4.0463,4.0428,4.0415,4.0409,4.0403,4.0386,4.038,4.0459,4.0459,4.0459,0,4.0448,4.0436,4.0461,4.0448,4.0449,4.0483,4.0464,4.0468,4.0474,4.0473,4.049,4.048,4.0486,4.0464,4.0452,4.0451,4.0448,4.0461,4.0408,4.0402,4.0398,4.0382,4.0375,4.0456,4.0456,4.0456,4.0457,0,4.0388,4.0379,4.0362,4.037,4.0369,4.0352,4.0376,4.0371,4.0389,4.0402,4.0387,4.0397,4.0396,4.0392,4.0408,4.0374,4.0383,4.0403,4.0432,4.0387,4.0373,4.0367,4.0452,4.0453,4.0454,4.0454,0,0,4.0293,4.0319,4.0312,4.0318,4.0332,4.0325,4.0312,4.0314,4.0311,4.0315,4.0305,4.0297,4.0317,4.0318,4.0335,4.0324,4.0285,4.0346,4.0347,4.0336,4.0252,4.0237,4.0229,4.0299,4.0298,4.0297,4.0252,0,4.0238,4.0217,4.0241,4.0215,4.0209,4.0243,4.0232,4.024,4.0253,4.025,4.0264,4.0259,4.0285,4.0287,4.0277,4.0292,4.0268,4.0295,4.0291,4.0291,4.0289,4.0221,4.0205,4.0161,4.0246,4.0245,4.0244,0,4.0169,4.0173,4.0147,4.0167,4.0165,4.0155,4.016,4.0156,4.0167,4.0178,4.0181,4.0203,4.0193,4.0222,4.0209,4.0227,4.0227,4.0234,4.0233,4.0234,4.0265,4.0221,4.0147,4.0141,4.0235,4.0236,4.0237,0,4.0105,4.0103,4.0089,4.0092,4.0114,4.0107,4.0116,4.0128,4.0129,4.0134,4.0135,4.0138,4.014,4.0142,4.0165,4.0183,4.015,4.018,4.016,4.0159,4.0151,4.0151,4.0077,4.0149,4.015,4.015,4.015,0,4.004,4.0024,4.0061,4.0052,4.0035,4.0064,4.0047,4.0059,4.0071,4.0066,4.0095,4.009,4.012,4.0118,4.0136,4.0124,4.0124,4.0134,4.0139,4.0131,4.013,4.0132,4.0136,4.0148,4.0148,4.0149,4.0149,0,3.9965,3.9989,3.9976,4.0,4.0005,3.9992,4.0013,4.0006,4.0023,4.0016,4.0016,4.0042,4.0042,4.0065,4.0069,4.0081,4.0063,4.0073,4.0059,4.0063,4.0042,4.0044,3.9967,3.9959,4.0035,4.0035,4.0034,0,3.9922,3.9911,3.9935,3.9934,3.9942,3.994,3.9942,3.9972,3.9972,3.9987,3.9979,3.9982,3.9985,3.9984,4.0003,4.0008,4.0019,3.9992,4.0019,4.0014,4.002,4.0021,4.0021,3.9985,3.9984,3.9984,3.9983,0,3.9845,3.9859,3.9861,3.9868,3.987,3.9877,3.9886,3.9883,3.9916,3.9916,3.9917,3.992,3.9927,3.993,3.9939,3.9948,3.9972,3.9975,3.997,3.9963,3.9956,3.9962,4.0044,3.9976,3.9976,3.9977,3.9977,3.9978,3.9786,3.9779,3.9796,3.9798,3.9808,3.9817,3.9813,3.9831,3.9833,3.9841,3.9858,3.9858,3.9873,3.9887,3.9896,3.9896,3.991,3.9903,3.9902,3.99,3.9897,3.9956,3.9898,3.9898,3.9898,3.9898,3.9899,0,3.9712,3.9725,3.9727,3.974,3.9743,3.9767,3.9778,3.9779,3.9779,3.9791,3.9796,3.9799,3.9804,3.9825,3.9832,3.9829,3.984,3.983,3.983,3.9833,3.9883,3.9887,3.9821,3.9821,3.9821,3.9821,3.9821,3.9821,3.9673,3.9664,3.968,3.9677,3.969,3.9691,3.9696,3.9705,3.9716,3.9719,3.9724,3.9738,3.9755,3.9765,3.977,3.9777,3.9779,3.9765,3.9775,3.9821,3.9829,3.9836,3.984,3.9765,3.9765,3.9725,3.9725,3.9725]}]]